{"data":{"norad_id":58921,"epoch":"2026-09-22T22:43:18.922656Z","epoch_age_seconds":40802,"freshness":"FRESH","line1":"1 58921U 24024E   26265.94674679  .00005043  00000+0  15244-3 0  9990","line2":"2 58921  97.2974 338.9303 0009613 122.1040 238.1138 15.34636683146881","mean_motion":15.34636683,"eccentricity":0.0009613,"inclination_deg":97.2974,"raan_deg":338.9303,"arg_perigee_deg":122.104,"mean_anomaly_deg":238.1138,"bstar":0.00015244,"rev_number":14688,"period_min":93.833284187173,"perigee_km":455.42443530372,"apogee_km":468.57528242858,"semimajor_km":6840.1368588661,"source":"CELESTRAK","updated_at":"2026-09-23T09:00:19.073864Z"}}